Location: ??????
(30.5519°N, 47.7720°E)
Time: 17:10:07
(UTC+00:00)

USA 229 DEB - Pass Details

Date: 24 January 2021
Orbit: 965 x 1247 km, 63.4° (Epoch: 26 February)

Event Time Altitude Azimuth Distance (km) Brightness Sun altitude
Rises 16:50:17 0° 329° (NNW) 4,029 7.0 -32.6°
Reaches altitude 10° 16:52:57 10° 329° (NNW) 3,100 6.4 -33.2°
Enters shadow 16:59:53 77° 302° (WNW) 1,251 3.9 -34.7°
